Погода в Тагане

Россия / Новосибирская область     54°57′20″N   77°17′29″E
темп.,
°C
ветер,
м/с
пор.,
м/с
влажн.,
%
обл.,
%
осадки,
мм/ч
давл.,
гПа
погр.,
м
5 декабря, вс
вс501:00−4юз51197100 0.1 1027242
04:00−2ююз61196100 0.1 1026415
07:00−3ююз6129465 0.1 1024299
10:00−3ююз6149575 0.0 1023304
13:00−2ююз7149599 0.0 1022330
16:00−2ююз61393100 0.0 1021294
19:00−2юз6149288 0.0 1020264
22:00−3юз6149063 0.0 1019248
6 декабря, пн
пн601:00−4юз6158978 0.0 1019273
04:00−4юз5139119 0.0 1019233
07:00−5юз5119399 0.0 1018182
10:00−6юз4994100 0.0 1018144
13:00−5юз3793100 0.0 1017165
16:00−5юз3793100 0.0 1016144
19:00−6юз4894100 0.0 1015148
22:00−4юз51192100 0.0 1014293
7 декабря, вт
вт701:00−4юз61295100 0.1 1013382
04:00−4зюз6129586 0.4 1013444
07:00−7зсз7129497 0.4 1016469
10:00−11зсз61394100 0.0 1019378
13:00−13зсз71291100 0.1 1023588
16:00−15зсз6129289 0.0 1027401
19:00−18зсз510967 0.0 1031207
22:00−20зсз48987 0.0 1034133
8 декабря, ср
ср801:00−22з34999 0.0 103661
04:00−23зюз3510052 0.0 103768
07:00−23зюз3510065 0.0 103774
10:00−23зюз3510065 0.0 103875
13:00−19зюз359836 0.0 1038124
16:00−19зюз35967 0.0 1038100
19:00−21з3510052 0.0 103958
22:00−23зсз3410044 0.0 104056
9 декабря, чт
чт901:00−23з3410010 0.0 104146
04:00−24з229937 0.0 104338
07:00−23з3410051 0.0 104351
10:00−23зюз3410060 0.0 104460
13:00−19юз479636 0.0 1044137
16:00−17ююз489268 0.0 1043184
19:00−15ююз5109174 0.0 1042214
22:00−13ююз6129394 0.1 1041296